CW4740 Weather Reports


Display with metric or nautical units.
time (UTC)temp
F
wind
direction
speed
MPH
gust
MPH
rain 1hr
in
rain 24hr
in
rain mn
in
humidity
%
barometer
mb
20260506212155 84 79 6.0 11.0 0.00 0.00 0.00 68 1016.2
20260506211632 84 78 3.0 11.0 0.00 0.00 0.00 67 1016.3
20260506211149 84 76 5.0 10.0 0.00 0.00 0.00 67 1016.2
20260506210647 84 67 4.0 12.0 0.00 0.00 0.00 66 1016.1
20260506210144 84 82 5.0 11.0 0.00 0.00 0.00 66 1016.1
20260506205713 84 99 5.0 11.0 0.00 0.00 0.00 67 1016.1
20260506205206 84 138 3.0 10.0 0.00 0.00 0.00 69 1016.0
20260506204702 84 86 6.0 10.0 0.00 0.00 0.00 68 1016.2
20260506204138 84 111 7.0 10.0 0.00 0.00 0.00 66 1016.2
20260506203634 84 104 5.0 10.0 0.00 0.00 0.00 65 1016.2
20260506203152 84 100 7.0 12.0 0.00 0.00 0.00 65 1016.2
20260506202649 84 128 8.0 12.0 0.00 0.00 0.00 66 1016.3
20260506202146 84 98 5.0 12.0 0.00 0.00 0.00 69 1016.3
20260506201644 84 85 7.0 12.0 0.00 0.00 0.00 66 1016.3
20260506201142 84 51 5.0 13.0 0.00 0.00 0.00 68 1016.4
20260506200639 83 107 7.0 13.0 0.00 0.00 0.00 72 1016.4
20260506200155 83 65 5.0 12.0 0.00 0.00 0.00 72 1016.4
20260506195720 83 107 8.0 13.0 0.00 0.00 0.00 70 1016.5
20260506195154 83 87 6.0 13.0 0.00 0.00 0.00 73 1016.6
20260506194709 84 93 5.0 12.0 0.00 0.00 0.00 72 1016.6
20260506194144 84 77 6.0 12.0 0.00 0.00 0.00 73 1016.7
20260506193701 83 98 5.0 10.0 0.00 0.00 0.00 73 1016.7
20260506193158 83 107 4.0 11.0 0.00 0.00 0.00 74 1016.8
20260506192655 83 94 6.0 12.0 0.00 0.00 0.00 74 1016.9
20260506192213 84 86 6.0 12.0 0.00 0.00 0.00 74 1016.9
20260506191630 83 102 7.0 11.0 0.00 0.00 0.00 72 1017.0
20260506191128 84 82 7.0 12.0 0.00 0.00 0.00 71 1017.0
20260506190705 84 88 5.0 10.0 0.00 0.00 0.00 72 1017.0
20260506190140 84 94 4.0 12.0 0.00 0.00 0.00 68 1017.1
20260506185707 84 109 5.0 10.0 0.00 0.00 0.00 68 1017.2
20260506185144 84 111 4.0 9.0 0.00 0.00 0.00 68 1017.3
20260506184640 85 84 5.0 10.0 0.00 0.00 0.00 70 1017.3
20260506184135 85 91 7.0 11.0 0.00 0.00 0.00 67 1017.5
20260506183635 85 103 6.0 11.0 0.00 0.00 0.00 66 1017.5
20260506183205 85 101 6.0 10.0 0.00 0.00 0.00 66 1017.5
20260506182640 85 122 4.0 11.0 0.00 0.00 0.00 65 1017.5
20260506182140 84 98 6.0 11.0 0.00 0.00 0.00 66 1017.6
20260506181637 84 109 6.0 11.0 0.00 0.00 0.00 67 1017.6
20260506181152 85 128 6.0 11.0 0.00 0.00 0.00 68 1017.6
20260506180629 85 149 5.0 12.0 0.00 0.00 0.00 70 1017.6
20260506180227 85 148 7.0 12.0 0.00 0.00 0.00 65 1017.6
20260506175707 85 102 6.0 11.0 0.00 0.00 0.00 63 1017.7
20260506175202 85 103 6.0 10.0 0.00 0.00 0.00 63 1017.7
20260506174718 85 121 3.0 10.0 0.00 0.00 0.00 69 1017.9
20260506174154 85 134 5.0 10.0 0.00 0.00 0.00 70 1017.9
20260506173651 84 80 7.0 10.0 0.00 0.00 0.00 63 1017.9
20260506173207 84 115 4.0 10.0 0.00 0.00 0.00 66 1017.9
20260506172704 84 111 5.0 10.0 0.00 0.00 0.00 66 1018.0
20260506172139 84 105 5.0 11.0 0.00 0.00 0.00 72 1017.9
20260506171654 84 94 4.0 12.0 0.00 0.00 0.00 73 1017.8
20260506171150 84 103 6.0 12.0 0.00 0.00 0.00 69 1017.9
20260506170646 84 140 6.0 10.0 0.00 0.00 0.00 71 1017.8
20260506170223 84 113 6.0 9.0 0.00 0.00 0.00 73 1017.9
20260506165727 84 112 6.0 9.0 0.00 0.00 0.00 71 1018.0
20260506165144 84 91 3.0 10.0 0.00 0.00 0.00 74 1018.0
20260506164741 83 80 5.0 10.0 0.00 0.00 0.00 70 1018.1
20260506164155 83 109 5.0 11.0 0.00 0.00 0.00 75 1018.0
20260506163631 84 105 4.0 9.0 0.00 0.00 0.00 74 1018.0
20260506163129 83 125 6.0 9.0 0.00 0.00 0.00 73 1018.0
20260506162707 83 111 4.0 8.0 0.00 0.00 0.00 75 1018.0
20260506162244 83 107 4.0 11.0 0.00 0.00 0.00 73 1018.1
20260506162140 83 107 4.0 11.0 0.00 0.00 0.00 73 1018.1
20260506161638 83 112 5.0 11.0 0.00 0.00 0.00 73 1018.1
20260506161157 83 86 4.0 9.0 0.00 0.00 0.00 74 1018.1
20260506160634 83 134 5.0 9.0 0.00 0.00 0.00 76 1018.0
20260506160131 82 130 5.0 9.0 0.00 0.00 0.00 77 1018.1
20260506155639 82 95 3.0 10.0 0.00 0.00 0.00 77 1018.1
20260506155156 82 84 5.0 10.0 0.00 0.00 0.00 77 1018.0
20260506154633 82 119 3.0 9.0 0.00 0.00 0.00 76 1018.0
20260506154211 82 138 6.0 10.0 0.00 0.00 0.00 77 1018.0
20260506154129 82 138 6.0 10.0 0.00 0.00 0.00 77 1018.0
20260506153727 82 96 5.0 11.0 0.00 0.00 0.00 78 1017.9
20260506153221 82 107 6.0 11.0 0.00 0.00 0.00 77 1017.9
20260506152733 82 94 4.0 9.0 0.00 0.00 0.00 76 1017.9
20260506152650 82 94 4.0 9.0 0.00 0.00 0.00 76 1017.9
20260506152227 82 128 4.0 9.0 0.00 0.00 0.00 78 1017.8
20260506151702 82 121 4.0 9.0 0.00 0.00 0.00 78 1017.9
20260506151218 82 126 4.0 10.0 0.00 0.00 0.00 80 1017.9
20260506151136 82 126 4.0 10.0 0.00 0.00 0.00 80 1017.9
20260506150633 82 139 5.0 10.0 0.00 0.00 0.00 79 1017.9
20260506150151 82 117 4.0 8.0 0.00 0.00 0.00 79 1017.9
20260506145657 82 120 4.0 8.0 0.00 0.00 0.00 79 1017.7
20260506145134 82 109 4.0 10.0 0.00 0.00 0.00 80 1017.9
20260506144649 82 103 4.0 11.0 0.00 0.00 0.00 79 1017.8
20260506144205 82 112 5.0 11.0 0.00 0.00 0.00 79 1017.7
20260506143700 82 96 3.0 11.0 0.00 0.00 0.00 79 1017.6
20260506143217 82 104 7.0 12.0 0.00 0.00 0.00 80 1017.5
20260506142712 81 100 4.0 12.0 0.00 0.00 0.00 80 1017.6
20260506142128 81 104 6.0 10.0 0.00 0.00 0.00 80 1017.5
20260506141726 81 99 5.0 10.0 0.00 0.00 0.00 80 1017.5
20260506141143 81 129 4.0 9.0 0.00 0.00 0.00 79 1017.6
20260506140639 81 128 4.0 10.0 0.00 0.00 0.00 80 1017.5
20260506140157 81 156 5.0 12.0 0.00 0.00 0.00 80 1017.5
20260506135704 81 151 5.0 12.0 0.00 0.00 0.00 80 1017.5
20260506135142 81 42 5.0 12.0 0.00 0.00 0.00 80 1017.5
20260506134639 81 89 5.0 12.0 0.00 0.00 0.00 81 1017.4
20260506134158 81 109 4.0 9.0 0.00 0.00 0.00 81 1017.4
20260506133635 81 115 5.0 9.0 0.00 0.00 0.00 80 1017.3
20260506133132 81 126 3.0 8.0 0.00 0.00 0.00 82 1017.5
20260506132749 81 92 5.0 8.0 0.00 0.00 0.00 80 1017.5
20260506132707 81 92 5.0 8.0 0.00 0.00 0.00 80 1017.5
20260506132203 81 128 5.0 10.0 0.00 0.00 0.00 81 1017.3
20260506131659 80 115 3.0 10.0 0.00 0.00 0.00 81 1017.2
20260506131134 80 92 6.0 11.0 0.00 0.00 0.00 81 1017.0
20260506130631 80 101 4.0 10.0 0.00 0.00 0.00 82 1017.1
20260506130248 80 101 7.0 11.0 0.00 0.00 0.00 82 1017.0
20260506130145 80 101 7.0 11.0 0.00 0.00 0.00 82 1017.0
20260506125728 80 113 6.0 11.0 0.00 0.00 0.00 83 1017.2
20260506125143 80 117 2.0 9.0 0.00 0.00 0.00 83 1017.2
20260506124701 79 139 3.0 9.0 0.00 0.00 0.00 83 1017.1
20260506124157 79 109 3.0 9.0 0.00 0.00 0.00 82 1017.1
20260506123712 79 84 5.0 9.0 0.00 0.00 0.00 82 1017.1
20260506123207 79 100 5.0 9.0 0.00 0.00 0.00 82 1017.3
20260506122723 79 115 5.0 9.0 0.00 0.00 0.00 82 1017.2
20260506122139 79 94 5.0 8.0 0.00 0.00 0.00 82 1017.1
20260506121657 79 101 3.0 9.0 0.00 0.00 0.00 83 1017.1
20260506121155 79 101 4.0 9.0 0.00 0.00 0.00 83 1017.1
20260506120633 79 94 3.0 6.0 0.00 0.00 0.00 83 1017.2
20260506120131 79 94 2.0 7.0 0.00 0.00 0.00 83 1016.9
20260506115635 79 94 4.0 8.0 0.00 0.00 0.00 83 1017.1
20260506115213 79 96 5.0 8.0 0.00 0.00 0.00 83 1017.0
20260506114706 79 94 4.0 8.0 0.00 0.00 0.00 83 1017.0
20260506114222 79 95 4.0 8.0 0.00 0.00 0.00 83 1016.9
20260506113638 79 119 4.0 8.0 0.00 0.00 0.00 83 1016.8
20260506113135 79 95 3.0 6.0 0.00 0.00 0.00 84 1016.7
20260506112632 78 95 1.0 7.0 0.00 0.00 0.00 85 1016.7
20260506112129 78 95 3.0 7.0 0.00 0.00 0.00 86 1016.6
20260506111747 78 95 2.0 6.0 0.00 0.00 0.00 86 1016.4
20260506111142 77 95 2.0 4.0 0.00 0.00 0.00 87 1016.2
20260506110639 77 95 2.0 3.0 0.00 0.00 0.00 87 1016.3
20260506110158 77 95 1.0 6.0 0.00 0.00 0.00 88 1016.2
20260506105646 77 95 2.0 6.0 0.00 0.00 0.00 88 1016.3
20260506105144 76 95 1.0 3.0 0.00 0.00 0.00 87 1016.1
20260506104641 76 95 1.0 2.0 0.00 0.00 0.00 87 1016.1
20260506104219 76 95 0.0 4.0 0.00 0.00 0.00 86 1016.1
20260506103714 76 95 1.0 4.0 0.00 0.00 0.00 86 1016.1
20260506103149 77 95 0.0 4.0 0.00 0.00 0.00 86 1016.2
20260506102643 77 95 2.0 4.0 0.00 0.00 0.00 86 1016.1
20260506102158 77 95 1.0 3.0 0.00 0.00 0.00 86 1016.0
20260506101633 77 95 1.0 4.0 0.00 0.00 0.00 86 1016.1
20260506101150 77 95 1.0 4.0 0.00 0.00 0.00 86 1016.1
20260506100646 77 95 1.0 6.0 0.00 0.00 0.00 87 1016.0
20260506100144 77 95 1.0 4.0 0.00 0.00 0.00 87 1015.9
20260506095632 77 95 2.0 6.0 0.00 0.00 0.00 87 1015.9
20260506095129 77 95 2.0 6.0 0.00 0.00 0.00 87 1015.9
20260506094706 77 95 0.0 6.0 0.00 0.00 0.00 87 1015.9
20260506094130 77 95 2.0 6.0 0.00 0.00 0.00 87 1015.8
20260506093704 77 95 1.0 6.0 0.00 0.00 0.00 87 1015.6
20260506093221 77 95 3.0 6.0 0.00 0.00 0.00 87 1015.9
20260506092656 77 95 2.0 6.0 0.00 0.00 0.00 88 1015.8
20260506092133 77 95 3.0 7.0 0.00 0.00 0.00 88 1015.7
20260506091636 77 95 1.0 7.0 0.00 0.00 0.00 88 1015.8
20260506091250 77 95 3.0 6.0 0.00 0.00 0.00 88 1015.6
20260506091146 77 95 3.0 6.0 0.00 0.00 0.00 88 1015.6
20260506090705 77 95 2.0 3.0 0.00 0.00 0.00 88 1015.5
20260506090241 77 95 1.0 3.0 0.00 0.00 0.00 87 1015.5
20260506090159 77 95 1.0 3.0 0.00 0.00 0.00 87 1015.5
20260506085643 77 95 2.0 3.0 0.00 0.00 0.00 87 1015.6
20260506085140 77 95 2.0 4.0 0.00 0.00 0.00 87 1015.5
20260506084657 77 95 2.0 4.0 0.00 0.00 0.00 87 1015.4
20260506084212 77 95 2.0 4.0 0.00 0.00 0.00 87 1015.6
20260506083708 77 95 2.0 4.0 0.00 0.00 0.00 87 1015.6
20260506083203 77 95 2.0 4.0 0.00 0.00 0.00 87 1015.7
20260506082719 77 95 0.0 0.0 0.00 0.00 0.00 87 1015.6
20260506082135 77 95 0.0 0.0 0.00 0.00 0.00 87 1015.8
20260506081713 77 95 0.0 1.0 0.00 0.00 0.00 86 1015.5
20260506081248 77 95 0.0 3.0 0.00 0.00 0.00 86 1015.7
20260506081206 77 95 0.0 3.0 0.00 0.00 0.00 86 1015.7
20260506080702 77 95 1.0 6.0 0.00 0.00 0.00 86 1015.6
20260506080139 77 95 2.0 6.0 0.00 0.03 0.00 86 1015.6
20260506073214 77 95 1.0 6.0 0.00 0.03 0.00 85 1015.3
20260506072629 77 95 1.0 6.0 0.00 0.03 0.00 85 1015.4
20260506072243 77 95 3.0 7.0 0.00 0.03 0.00 85 1015.5
20260506071643 77 100 3.0 7.0 0.00 0.03 0.00 85 1015.4
20260506071215 78 100 4.0 7.0 0.00 0.03 0.00 85 1015.3
20260506070751 78 113 3.0 7.0 0.00 0.03 0.00 85 1015.3
20260506070204 78 90 4.0 9.0 0.00 0.03 0.00 85 1015.5
20260506062220 78 89 2.0 7.0 0.00 0.03 0.00 85 1015.8
20260506062138 78 89 2.0 7.0 0.00 0.03 0.00 85 1015.8
20260506061736 78 89 2.0 9.0 0.00 0.03 0.00 85 1015.8
20260506061131 78 95 4.0 9.0 0.00 0.03 0.00 85 1015.6
20260506060729 78 103 5.0 9.0 0.00 0.03 0.00 85 1015.7
20260506060206 78 98 4.0 9.0 0.00 0.03 0.00 84 1015.8
20260506051212 78 103 6.0 11.0 0.00 0.03 0.00 83 1016.3
20260506050707 78 107 5.0 11.0 0.00 0.03 0.00 83 1016.3
20260506050143 78 113 4.0 9.0 0.00 0.03 0.00 84 1016.3
20260506044643 78 107 3.0 8.0 0.00 0.03 0.00 83 1016.3
20260506044200 78 108 2.0 7.0 0.00 0.03 0.00 83 1016.4
20260506043736 78 108 2.0 7.0 0.00 0.03 0.00 82 1016.4
20260506043132 78 84 4.0 8.0 0.00 0.03 0.00 82 1016.6
20260506042628 78 76 3.0 8.0 0.00 0.03 0.00 83 1016.6
20260506042226 78 83 4.0 9.0 0.00 0.03 0.00 83 1016.5
20260506041721 78 119 3.0 9.0 0.00 0.03 0.00 82 1016.6
20260506041157 78 103 2.0 9.0 0.00 0.03 0.00 83 1016.7
20260506040654 78 99 4.0 8.0 0.00 0.03 0.00 83 1016.6
20260506040130 78 91 5.0 8.0 0.00 0.04 0.03 83 1016.8
20260506035635 78 52 4.0 9.0 0.00 0.04 0.03 82 1016.7
20260506035133 78 102 3.0 10.0 0.00 0.04 0.03 83 1016.8
20260506034630 78 113 5.0 11.0 0.00 0.04 0.03 83 1016.7
20260506034247 78 92 5.0 11.0 0.00 0.04 0.03 84 1016.7
20260506033640 78 91 3.0 9.0 0.00 0.04 0.03 84 1016.7
20260506033137 78 91 5.0 9.0 0.00 0.04 0.03 84 1016.7
20260506032635 78 92 3.0 9.0 0.00 0.04 0.03 84 1016.8
20260506032133 78 91 3.0 8.0 0.00 0.04 0.03 84 1016.7
20260506031631 78 93 4.0 10.0 0.00 0.04 0.03 84 1016.5
20260506031229 78 109 5.0 10.0 0.00 0.04 0.03 84 1016.4
20260506030705 78 109 4.0 11.0 0.00 0.04 0.03 83 1016.3
20260506030222 78 55 4.0 11.0 0.00 0.04 0.03 83 1016.3
20260506025708 78 117 3.0 9.0 0.00 0.04 0.03 83 1016.3
20260506025240 78 86 4.0 9.0 0.00 0.04 0.03 83 1016.3
20260506025137 78 86 4.0 9.0 0.00 0.04 0.03 83 1016.3
20260506024655 78 100 2.0 8.0 0.00 0.04 0.03 83 1016.4
20260506024211 78 94 4.0 9.0 0.00 0.04 0.03 83 1016.3
20260506024129 78 94 4.0 9.0 0.00 0.04 0.03 83 1016.3
20260506023646 78 72 5.0 9.0 0.00 0.04 0.03 83 1016.2
20260506023202 78 108 4.0 12.0 0.00 0.04 0.03 83 1016.2
20260506022639 78 93 6.0 12.0 0.00 0.04 0.03 83 1016.1
20260506022141 78 114 8.0 11.0 0.00 0.04 0.03 83 1016.1
20260506021716 78 114 6.0 12.0 0.00 0.04 0.03 84 1016.1
20260506021633 78 114 6.0 12.0 0.00 0.04 0.03 84 1016.1
20260506021150 78 80 5.0 12.0 0.00 0.04 0.03 84 1016.0
20260506020706 78 103 4.0 11.0 0.00 0.04 0.03 84 1015.9
20260506020222 78 103 4.0 11.0 0.00 0.04 0.03 84 1016.0
20260506015707 78 97 4.0 10.0 0.00 0.04 0.03 84 1016.0
20260506015143 78 112 4.0 10.0 0.00 0.04 0.03 83 1015.9
20260506014700 78 104 5.0 9.0 0.00 0.04 0.03 83 1015.8
20260506014237 78 56 4.0 10.0 0.00 0.04 0.03 83 1015.8
20260506014134 78 56 4.0 10.0 0.00 0.04 0.03 83 1015.8
20260506013632 78 77 6.0 10.0 0.00 0.04 0.03 83 1015.7
20260506013128 78 89 4.0 10.0 0.00 0.04 0.03 82 1015.5
20260506012726 78 73 5.0 10.0 0.00 0.04 0.03 82 1015.5
20260506012201 78 82 4.0 12.0 0.00 0.04 0.03 82 1015.5
20260506011738 78 78 5.0 12.0 0.00 0.04 0.03 82 1015.5
20260506011211 78 78 4.0 9.0 0.00 0.04 0.03 82 1015.4
20260506010745 78 90 4.0 9.0 0.00 0.04 0.03 82 1015.4
20260506010200 78 90 4.0 10.0 0.00 0.04 0.03 82 1015.5
20260506005701 78 90 5.0 11.0 0.00 0.04 0.03 81 1015.6
20260506005141 78 38 4.0 9.0 0.00 0.04 0.03 81 1015.6
20260506004657 78 70 3.0 11.0 0.00 0.04 0.03 81 1015.6
20260506004229 78 71 4.0 15.0 0.00 0.04 0.03 80 1015.6
20260506003704 78 80 3.0 13.0 0.00 0.04 0.03 81 1015.6
20260506003140 78 75 4.0 13.0 0.00 0.04 0.03 80 1015.5
20260506002737 78 63 4.0 11.0 0.00 0.04 0.03 81 1015.5
20260506002131 78 84 5.0 11.0 0.00 0.04 0.03 81 1015.7
20260506001628 78 65 3.0 11.0 0.00 0.04 0.03 81 1015.7
20260506001128 78 78 5.0 10.0 0.00 0.04 0.03 80 1015.7
20260506000702 78 90 4.0 13.0 0.00 0.04 0.03 81 1015.6
20260506000142 78 82 4.0 13.0 0.00 0.04 0.03 81 1015.6
20260505235629 79 75 7.0 13.0 0.00 0.04 0.03 81 1015.5
20260505235146 79 57 5.0 11.0 0.00 0.04 0.03 81 1015.3
20260505234703 79 69 5.0 13.0 0.00 0.04 0.03 80 1015.2
20260505234159 79 83 6.0 13.0 0.00 0.04 0.03 79 1015.1
20260505233655 79 86 5.0 13.0 0.00 0.04 0.03 79 1015.2
20260505233130 79 26 4.0 11.0 0.00 0.04 0.03 79 1015.1
20260505232707 79 55 4.0 11.0 0.00 0.04 0.03 79 1015.1
20260505232144 79 132 6.0 11.0 0.00 0.04 0.03 79 1015.2
20260505231742 79 33 4.0 15.0 0.00 0.04 0.03 79 1015.0
20260505231212 79 42 5.0 12.0 0.00 0.04 0.03 79 1015.1
20260505231129 79 42 5.0 12.0 0.00 0.04 0.03 79 1015.1
20260505230632 79 44 4.0 12.0 0.00 0.04 0.03 80 1015.0
20260505230203 79 27 5.0 11.0 0.00 0.04 0.03 79 1015.0
20260505225711 79 12 5.0 11.0 0.00 0.04 0.03 79 1015.1
20260505225127 79 76 5.0 11.0 0.00 0.04 0.03 80 1015.1
20260505224644 79 11 3.0 13.0 0.00 0.04 0.03 79 1015.0
20260505224200 80 21 4.0 13.0 0.00 0.04 0.03 79 1015.0
20260505223714 80 69 3.0 12.0 0.00 0.04 0.03 79 1015.0
20260505223632 80 69 3.0 12.0 0.00 0.04 0.03 79 1015.0
20260505223129 80 31 6.0 11.0 0.00 0.04 0.03 79 1014.9
20260505222706 80 5 4.0 11.0 0.00 0.04 0.03 79 1014.9
20260505222242 80 42 3.0 10.0 0.00 0.04 0.03 80 1014.8
20260505222200 80 42 3.0 10.0 0.00 0.04 0.03 80 1014.8
20260505221737 80 80 6.0 13.0 0.00 0.04 0.03 79 1014.9
20260505221634 80 80 6.0 13.0 0.00 0.04 0.03 79 1014.9
20260505221131 80 29 5.0 14.0 0.00 0.04 0.03 79 1014.9
20260505220649 80 58 7.0 14.0 0.00 0.04 0.03 79 1015.0
20260505220225 81 89 7.0 14.0 0.00 0.04 0.03 79 1014.8
20260505220143 81 89 7.0 14.0 0.00 0.04 0.03 79 1014.8
20260505215631 81 23 5.0 12.0 0.00 0.04 0.03 78 1014.9
20260505215228 81 76 6.0 13.0 0.00 0.04 0.03 77 1014.9
20260505214744 81 24 3.0 13.0 0.00 0.04 0.03 78 1014.7
20260505214138 81 71 6.0 14.0 0.00 0.04 0.03 78 1014.6
20260505213636 81 11 5.0 14.0 0.00 0.04 0.03 78 1014.6
20260505213214 81 63 5.0 13.0 0.00 0.04 0.03 78 1014.6
20260505212630 81 44 6.0 13.0 0.00 0.04 0.03 77 1014.5